STARLINK-4482, 53530

Orbit data source: Space-Track

STARLINK-4482, 53530 is a payload satellite owned by SpaceX/Seattle (US) in LEO that was launched on Fri, 19 Aug 2022 UTC via an FALCON 9 launch vehicle from the Air Force Eastern Test Range (AFETR). Payload-class satellites include a variety of spacecraft equipped with specific instruments for various scientific and technological missions. These include communications satellites like Starlink; space stations such as the ISS; scientific satellites like the Hubble; Earth observation satellites from companies like Planet Labs, Umbra, and HawkEye 360; GPS; miniature CubeSats for education and research; and military/defense satellites.

Loading next visibility...
Identifier
53530, 2022-101D
Orbit
LEO
Country
Flag of USUS
Related business
Manufacturer
SpaceX/Seattle
Mission
Operational Commercial Communications
Bus & Motor
STARLINK, Unknown motor
Mass
300 kg wet, ~290 kg dry
Launch date (UTC)
2022-08-19 (4 years ago)
Launch vehicle
FALCON 9
Launch site
Air Force Eastern Test Range (AFETR)
Object type
Payload
Rocket body
Debris
Shape & HBR
Box + 1 Pan, 10.1 m
Radar Cross Section
13.562 m², Large (>1 m²)

Expand to show TLE details & history
Last TLE update: 2 days ago

TLE from 2 days ago
0 STARLINK-4482
1 53530U 22101D   26171.45904090 -.00000042  00000-0  15444-4 0  9999
2 53530  53.1612 332.8736 0001165  78.7740 281.3382 15.08835881211675
Epoch: 2026-06-20T11:01Z
TLE epoch observation values (Epoch: 2026-06-20T11:01:01.133Z)
Latitude
-0.00006°
Longitude
-101.05453°
Altitude
540.489 km
Speed
7.593 km/s
True Right ascension
22h 11m 29s
True Declination
0° 00' 00"
Sunlit
Object was in full shadow at epoch
Visualization orbit readout
Latitude
Unknown
Longitude
Unknown
Altitude
Unknown
Speed
Unknown
Apparent Right ascension
Unknown
Apparent Declination
Unknown
Sunlit
N/A
Visualization observer readout
Local Sidereal Time
21:28:42
Azimuth
Unknown
Elevation
Unknown
Doppler factor
Unknown
Orbital elements
Apogee altitude
540.816 km
Perigee altitude
539.204 km
Semi-major axis
6,918.147 km
Eccentricity
0.00012
Inclination
53.1612°
RAAN
332.8736°
Arg. of periapsis
78.774°
True anomaly
281.32511°
Mean anomaly
281.3382°
Eccentric anomaly
281.33166°
Mean motion
3.77189 °/min
Orbital period
95.44 mins
BSTAR
0.000015444
Loading maneuver chart data...
Computing Atmospheric mass density...
Loading historical data...
Loading historical data...
Loading historical data...
Loading historical data...
Loading historical data...
Loading historical data...
Loading historical data...

Documentation

Showing up to 5 results
|